TimeCET,TemperatureF,Dew PointF,Humidity,Sea Level PressureIn,VisibilityMPH,Wind Direction,Wind SpeedMPH,Gust SpeedMPH,PrecipitationIn,Events,Conditions,WindDirDegrees,DateUTC
12:00 AM,40,32,63,29.87,,SSE,8.9,,,,,150,2013-12-25 23:00:00
1:00 AM,39,31,64,29.87,,SE,4.5,,,,,130,2013-12-26 00:00:00
2:00 AM,38,31,66,29.86,,ESE,2.2,,,,,110,2013-12-26 01:00:00
3:00 AM,38,31,66,29.85,,ESE,4.5,,,,,110,2013-12-26 02:00:00
4:00 AM,36,30,71,29.84,,ENE,6.7,,,,,70,2013-12-26 03:00:00
5:00 AM,35,29,72,29.83,,East,4.5,,,,,80,2013-12-26 04:00:00
5:15 AM,33.8,28.4,81,29.83,-9999.0,East,6.9,-,N/A,,Clear,80,2013-12-26 04:15:00
5:45 AM,33.8,28.4,81,29.80,-9999.0,ENE,5.8,-,N/A,,Clear,70,2013-12-26 04:45:00
6:00 AM,34,29,75,29.83,9,ENE,6.7,,,,Partly Cloudy,70,2013-12-26 05:00:00
6:15 AM,33.8,28.4,81,29.80,-9999.0,East,5.8,-,N/A,,Clear,100,2013-12-26 05:15:00
6:45 AM,33.8,30.2,87,29.80,-9999.0,East,8.1,-,N/A,,Clear,80,2013-12-26 05:45:00
7:00 AM,34,29,77,29.81,12,East,6.7,,,,Partly Cloudy,80,2013-12-26 06:00:00
7:15 AM,35.6,30.2,81,29.80,-9999.0,East,8.1,-,N/A,,Clear,90,2013-12-26 06:15:00
7:45 AM,35.6,30.2,81,29.80,-9999.0,East,6.9,-,N/A,,Clear,90,2013-12-26 06:45:00
8:00 AM,35,30,75,29.80,19,East,6.7,,,,Partly Cloudy,90,2013-12-26 07:00:00
8:15 AM,37.4,30.2,75,29.77,-9999.0,East,8.1,-,N/A,,Clear,90,2013-12-26 07:15:00
8:45 AM,39.2,32.0,75,29.77,-9999.0,East,8.1,-,N/A,,Clear,90,2013-12-26 07:45:00
9:00 AM,39,32,67,29.79,12,East,6.7,,,,Partly Cloudy,90,2013-12-26 08:00:00
9:15 AM,42.8,33.8,70,29.77,-9999.0,East,6.9,-,N/A,,Clear,90,2013-12-26 08:15:00
9:45 AM,46.4,33.8,62,29.77,-9999.0,East,8.1,-,N/A,,Clear,100,2013-12-26 08:45:00
10:00 AM,46,34,52,29.78,16,East,8.9,,,,Partly Cloudy,100,2013-12-26 09:00:00
10:15 AM,48.2,33.8,58,29.77,-9999.0,East,8.1,-,N/A,,Clear,100,2013-12-26 09:15:00
10:45 AM,51.8,33.8,50,29.77,-9999.0,ESE,8.1,-,N/A,,Clear,110,2013-12-26 09:45:00
11:00 AM,52,35,39,29.76,16,ESE,6.7,,,,Partly Cloudy,110,2013-12-26 10:00:00
11:15 AM,53.6,35.6,51,29.74,-9999.0,ESE,9.2,-,N/A,,Clear,110,2013-12-26 10:15:00
11:45 AM,57.2,35.6,44,29.74,-9999.0,ESE,9.2,-,N/A,,Clear,120,2013-12-26 10:45:00
12:00 PM,57,36,34,29.73,19,ESE,8.9,,,,Partly Cloudy,120,2013-12-26 11:00:00
12:15 PM,55.4,37.4,51,29.71,-9999.0,SE,11.5,-,N/A,,Clear,140,2013-12-26 11:15:00
12:45 PM,57.2,37.4,48,29.71,-9999.0,SE,10.4,-,N/A,,Clear,140,2013-12-26 11:45:00
1:00 PM,58,38,35,29.71,19,SE,11.2,,,,Partly Cloudy,140,2013-12-26 12:00:00
1:15 PM,57.2,37.4,48,29.71,-9999.0,SE,9.2,-,N/A,,Clear,140,2013-12-26 12:15:00
1:45 PM,57.2,37.4,48,29.71,-9999.0,SE,8.1,-,N/A,,Clear,130,2013-12-26 12:45:00
2:00 PM,58,38,36,29.70,19,SE,8.9,,,,Partly Cloudy,130,2013-12-26 13:00:00
2:15 PM,57.2,37.4,48,29.68,-9999.0,SE,9.2,-,N/A,,Clear,140,2013-12-26 13:15:00
2:45 PM,55.4,37.4,51,29.71,-9999.0,East,6.9,-,N/A,,Clear,100,2013-12-26 13:45:00
3:00 PM,54,38,43,29.70,16,East,6.7,,,,Partly Cloudy,100,2013-12-26 14:00:00
3:15 PM,51.8,37.4,58,29.71,-9999.0,East,5.8,-,N/A,,Clear,90,2013-12-26 14:15:00
3:45 PM,48.2,35.6,62,29.71,-9999.0,East,6.9,-,N/A,,Clear,80,2013-12-26 14:45:00
4:00 PM,48,36,52,29.71,12,East,6.7,,,,Partly Cloudy,80,2013-12-26 15:00:00
4:15 PM,48.2,35.6,62,29.71,-9999.0,East,9.2,-,N/A,,Clear,80,2013-12-26 15:15:00
4:45 PM,46.4,35.6,66,29.71,-9999.0,East,10.4,-,N/A,,Clear,80,2013-12-26 15:45:00
5:00 PM,47,35,52,29.70,9,East,11.2,,,,Partly Cloudy,80,2013-12-26 16:00:00
6:00 PM,46,35,53,29.70,,East,8.9,,,,,90,2013-12-26 17:00:00
7:00 PM,45,34,56,29.71,,East,8.9,,,,,80,2013-12-26 18:00:00
8:00 PM,45,34,56,29.71,,East,8.9,,,,,80,2013-12-26 19:00:00
9:00 PM,44,34,58,29.72,,East,6.7,,,,,80,2013-12-26 20:00:00
10:00 PM,44,35,59,29.72,,ENE,6.7,,,,,70,2013-12-26 21:00:00
11:00 PM,44,35,60,29.73,,ENE,8.9,,,,,70,2013-12-26 22:00:00